FENGYUN 1C DEB, 30891

Orbit data source: Space-Track

FENGYUN 1C DEB, 30891 is space debris in SSO originally from a launch on Mon, 10 May 1999 UTC launched from the Taiyaun Space Center, China (TSC). Fengyun 1C debris stems from the Chinese weather satellite Fengyun-1C, which was intentionally destroyed by a Chinese anti-satellite missile in 2007. This event dramatically increased the amount of space debris, with thousands of trackable fragments posing hazards to satellites and human spaceflight. The Fengyun 1C debris cloud has become a focal point in discussions about space sustainability and the need for international regulations to prevent the creation of new debris.

Loading next visibility...
Identifier
30891, 1999-025AYD
Orbit
SSO
Country
Flag of CNCN / PRC
Related business
Manufacturer
Unknown
Mission
Spacecraft
Bus & Motor
Unknown
Mass
Unknown
Launch date (UTC)
1999-05-10 (27 years ago)
Launch vehicle
Unknown
Launch site
Taiyaun Space Center, China (TSC)
Object type
Payload
Rocket body
Debris
Shape & HBR
Unknown shape, 0.1 m
Radar Cross Section
Medium (>0.1 m² and <1 m²)

Expand to show TLE details & history
Last TLE update: 1 day ago

TLE from 1 day ago
0 FENGYUN 1C DEB
1 30891U 99025AYD 26256.38418788  .00000361  00000-0  24082-3 0  9993
2 30891  98.7528 300.2890 0057173 136.4065 238.6513 14.06350668998421
Epoch: 2026-09-13T09:13Z
TLE epoch observation values (Epoch: 2026-09-13T09:13:13.832Z)
Latitude
14.29934°
Longitude
167.36451°
Altitude
895.797 km
Speed
7.394 km/s
True Right ascension
19h 52m 12s
True Declination
14° 13' 08"
Sunlit
Object was in full shadow at epoch
Visualization orbit readout
Latitude
Unknown
Longitude
Unknown
Altitude
Unknown
Speed
Unknown
Apparent Right ascension
Unknown
Apparent Declination
Unknown
Sunlit
N/A
Visualization observer readout
Local Sidereal Time
02:24:19
Azimuth
Unknown
Elevation
Unknown
Doppler factor
Unknown
Orbital elements
Apogee altitude
910.5 km
Perigee altitude
827.631 km
Semi-major axis
7,247.202 km
Eccentricity
0.00572
Inclination
98.7528°
RAAN
300.289°
Arg. of periapsis
136.4065°
True anomaly
238.09387°
Mean anomaly
238.6513°
Eccentric anomaly
238.37238°
Mean motion
3.51793 °/min
Orbital period
102.33 mins
BSTAR
0.00024082
Loading maneuver chart data...
Computing Atmospheric mass density...

Documentation

Showing up to 5 results
|